User: anonymous   Login
Location: Auttagershofen
(48.1940°N, 10.0237°E)
Time: 22:20:28
(UTC+00:00)
Language:

Cosmos 2218 Rocket - Orbit

View from above orbital plane
View from above orbital plane
View from above satellite
View from above satellite

Ground track
Ground track

The orbit is defined by the following mean orbital elements,

1 22208U          26069.40046958 +.00000000 +00000-0 +79150-4 0 00002
2 22208  82.9226 172.0934 0035268 143.9352 283.2839 13.75432412    09
Epoch (UTC): 10 March 2026 09:36:40
Eccentricity: 0.0035268
inclination: 82.9226°
perigee height: 954 km
apogee height: 1006 km
right ascension of ascending node: 172.0934°
argument of perigee: 143.9352°
revolutions per day: 13.75432412
mean anomaly at epoch: 283.2839°

The dashed part of the orbit path shows where the satellite is in the earth's shadow,  

DLR